Вернуться в каталог

STARLINK-32717

АктивенСвязьVLEO
NORAD 62491·PAYLOAD·🇺🇸 United States

Запущен Jan 6, 2025 с Cape Canaveral Space Force Station

Loading…

Ближайшие Пролёты (ближайшие 24 часа)

TLE

СвежийSource: CelesTrak SupGP

Эпоха: Sep 14, 2026, 20:59 UTC

1 62491C 25003E   26257.87479167 -.00017371  00000+0 -62916-3 0  2577
2 62491  43.0022 300.4221 0001622 266.7817 197.9678 15.27587899    14

Отслеживайте STARLINK-32717 в реальном времени с AllMySat

Download on the App Store